2020-079K (46836 NORAD) Tracking and Keplerian Element Data

This shows tracking and keplerian element data for the satellite.

Feedback or suggestion? Click here.




ElementValue
Catalog46836
Name2020-079K
Epoch Orbit259
Epoch Day328.11638804
Epoch Year2020
RAAN40.0125
Inclination97.2665
Eccentricity0.0007965
Argument of Perigee208.8654
Mean Anonmoly239.5407
Mean Motion15.31941285
Decay Rate1.993E-05
L11 46836U 20079K 20328.11638804 .00001993 00000-0 67049-4 0 9993
L22 46836 97.2665 40.0125 0007965 208.8654 239.5407 15.31941285 2591

Live tracking and technical data element details for 2020-079K (NORAD 46836). 2020-079K can be tracked NOW for your location showing map with azimuth and elevation plus other details from your city location.

Track the satellite on the map from your city or location and see movement details for azimuth, elevation, latitude, longitude, range, height, and movement on the map or in text.







IsCatalogInMostPopularTable: catalog: 46836, numindb: 6
Update: records affected: 1



GetName: 46836 2020-079K

Hit Count: updated at: Tue, 24 Nov 2020 12:53:23 GMT